This is the latest recevied weather packets stored in our database for station/object K4PAD. If no packets are shown the sender has not sent any weather packets the latest 10 day(s).
| Time | Temp. | Humidity | Pressure | Rain* | Wind** | Luminosity | Snow |
|---|---|---|---|---|---|---|---|
| 1777488555 | 33.33° C | 42% | 1014 hPa | 0 mm | - | 1061 W/m² | - |
| 1777488253 | 32.22° C | 41% | 1014 hPa | 0 mm | - | 1119 W/m² | - |
| 1777487951 | 32.22° C | 43% | 1014.1 hPa | 0 mm | - | 1129 W/m² | - |
| 1777487649 | 32.78° C | 40% | 1014.3 hPa | 0 mm | - | 1117 W/m² | - |
| 1777487345 | 32.22° C | 43% | 1014.5 hPa | 0 mm | - | 1115 W/m² | - |
| 1777487043 | 31.67° C | 46% | 1014.5 hPa | 0 mm | - | 1170 W/m² | - |
| 1777486738 | 31.67° C | 41% | 1014.5 hPa | 0 mm | - | 1118 W/m² | - |
| 1777486436 | 31.67° C | 44% | 1014.6 hPa | 0 mm | - | 374 W/m² | - |
| 1777486134 | 32.22° C | 46% | 1014.7 hPa | 0 mm | - | 285 W/m² | - |
| 1777485830 | 31.11° C | 49% | 1014.5 hPa | 0 mm | - | 1058 W/m² | - |
| 1777485526 | 31.11° C | 48% | 1014.9 hPa | 0 mm | - | 1076 W/m² | - |
| 1777485223 | 30.56° C | 51% | 1015.1 hPa | 0 mm | - | 1126 W/m² | - |
| 1777484919 | 30° C | 52% | 1015.3 hPa | 0 mm | - | 677 W/m² | - |
| 1777484616 | 30° C | 52% | 1015.5 hPa | 0 mm | - | 355 W/m² | - |
| 1777484312 | 30.56° C | 50% | 1015.6 hPa | 0 mm | - | 368 W/m² | - |
| 1777484008 | 30.56° C | 51% | 1015.6 hPa | 0 mm | - | 504 W/m² | - |
| 1777483705 | 30.56° C | 51% | 1015.6 hPa | 0 mm | - | 518 W/m² | - |
| 1777483401 | 30.56° C | 51% | 1015.7 hPa | 0 mm | - | 533 W/m² | - |
| 1777483096 | 30.56° C | 50% | 1015.8 hPa | 0 mm | - | 771 W/m² | - |
| 1777482794 | 31.67° C | 49% | 1015.8 hPa | 0 mm | - | 453 W/m² | - |
| 1777482489 | 30.56° C | 50% | 1015.9 hPa | 0 mm | - | 833 W/m² | - |
| 1777482187 | 31.11° C | 50% | 1016.1 hPa | 0 mm | - | 883 W/m² | - |
| 1777481884 | 31.11° C | 47% | 1016.1 hPa | 0 mm | - | 1061 W/m² | - |
| 1777481581 | 30.56° C | 51% | 1016.1 hPa | 0 mm | - | 1098 W/m² | - |
| 1777481278 | 30.56° C | 51% | 1016.2 hPa | 0 mm | - | 1068 W/m² | - |
* Rain latest hour (hover to see other rain measurements)
** Current wind speed in m/s (hover to see current wind gust speed)